Madison, MN

1:05 PM CST on December 06, 2019 (GMT -0600)
Madison-Lac Qui Parle County

Weather History for KDXX - August, 2019

Change the Weather History Date:

Saturday, August 31, 2019

  Actual Average (KAQP) Record (KAQP)
Temperature  
Mean Temperature 64 °F -  
Max Temperature 69 °F 77 °F 91 °F (2013)
Min Temperature 60 °F 54 °F 46 °F (2003)
Growing Degree Days 14 (Base 50)    
Moisture  
Dew Point 57 °F    
Average Humidity 79    
Maximum Humidity 88    
Minimum Humidity 60    
Precipitation  
Precipitation 0.00 in - - ()
Sea Level Pressure  
Sea Level Pressure 30.20 in    
Wind  
Wind Speed 3 mph (SE)    
Max Wind Speed 10 mph    
Max Gust Speed 9 mph    
Visibility 10 miles    
Events Rain    
Averages and records for this station are not official NWS values.
T = Trace of Precipitation, MM = Missing Value Source: NWS Daily Summary

Daily Weather History Graph

Daily Weather History Graph

Search for Another Location

Airport or City:

Astronomy

Aug. 31, 2019 Rise Set
Actual Time 6:45 AM CDT 8:03 PM CDT
Civil Twilight 6:14 AM CDT 8:34 PM CDT
Nautical Twilight 5:38 AM CDT 9:10 PM CDT
Astronomical Twilight 4:59 AM CDT 9:49 PM CDT
Moon 8:04 AM CDT (8/31) 9:14 PM CDT (8/31)
Length of Visible Light 14h 19m
Length of Day
13h 18m
New Moon, 3% of the Moon is Illuminated
Aug 31
New Moon
Sep 5
First Quarter
Sep 13
Full
Sep 21
Last Quarter
Sep 28
New

Hourly Weather History & Observations

Time (CDT) Temp. Dew Point Humidity Pressure Visibility Wind Dir Wind Speed Gust Speed Precip Events Conditions
12:18 AM 60.8 °F 55.4 °F 82% 30.25 in 10.0 mi Calm Calm - N/A   Clear
12:36 AM 60.8 °F 55.4 °F 82% 30.25 in 10.0 mi Calm Calm - N/A   Clear
12:55 AM 60.8 °F 55.4 °F 82% 30.25 in 10.0 mi Calm Calm - N/A   Scattered Clouds
1:15 AM 60.8 °F 57.2 °F 88% 30.25 in 10.0 mi East 3.5 mph - N/A   Scattered Clouds
1:16 AM 60.8 °F 57.2 °F 88% 30.25 in 10.0 mi East 3.5 mph - N/A   Scattered Clouds
1:35 AM 60.8 °F 57.2 °F 88% 30.24 in 10.0 mi East 3.5 mph - N/A   Scattered Clouds
1:40 AM 60.8 °F 57.2 °F 88% 30.24 in 10.0 mi East 4.6 mph - N/A   Scattered Clouds
1:57 AM 60.8 °F 57.2 °F 88% 30.24 in 10.0 mi East 4.6 mph - N/A   Scattered Clouds
2:15 AM 60.8 °F 57.2 °F 88% 30.24 in 10.0 mi East 3.5 mph - N/A   Mostly Cloudy
2:35 AM 60.8 °F 57.2 °F 88% 30.24 in 10.0 mi Calm Calm - N/A   Mostly Cloudy
2:36 AM 60.8 °F 57.2 °F 88% 30.24 in 10.0 mi Calm Calm - N/A   Mostly Cloudy
2:55 AM 60.8 °F 57.2 °F 88% 30.24 in 10.0 mi SE 3.5 mph - N/A   Scattered Clouds
2:56 AM 60.8 °F 57.2 °F 88% 30.24 in 10.0 mi SE 3.5 mph - N/A   Scattered Clouds
3:19 AM 60.8 °F 57.2 °F 88% 30.24 in 10.0 mi SSE 3.5 mph - N/A   Clear
3:36 AM 60.8 °F 57.2 °F 88% 30.24 in 10.0 mi SE 3.5 mph - N/A   Clear
3:56 AM 60.8 °F 57.2 °F 88% 30.24 in 10.0 mi Calm Calm - N/A   Clear
4:15 AM 60.8 °F 57.2 °F 88% 30.24 in 10.0 mi Calm Calm - N/A   Scattered Clouds
4:35 AM 60.8 °F 57.2 °F 88% 30.23 in 10.0 mi Calm Calm - N/A   Scattered Clouds
4:39 AM 60.8 °F 57.2 °F 88% 30.23 in 10.0 mi ESE 3.5 mph - N/A   Scattered Clouds
4:57 AM 60.8 °F 57.2 °F 88% 30.23 in 10.0 mi Calm Calm - N/A   Mostly Cloudy
5:15 AM 60.8 °F 57.2 °F 88% 30.22 in 10.0 mi Calm Calm - N/A   Overcast
5:35 AM 60.8 °F 57.2 °F 88% 30.22 in 10.0 mi SSE 3.5 mph - N/A   Overcast
5:36 AM 60.8 °F 57.2 °F 88% 30.22 in 10.0 mi SSE 3.5 mph - N/A   Overcast
5:55 AM 60.8 °F 57.2 °F 88% 30.23 in 10.0 mi SSE 3.5 mph - N/A   Overcast
5:56 AM 60.8 °F 57.2 °F 88% 30.23 in 10.0 mi SSE 3.5 mph - N/A   Overcast
6:18 AM 60.8 °F 57.2 °F 88% 30.22 in 10.0 mi Calm Calm - N/A   Overcast
6:36 AM 60.8 °F 57.2 °F 88% 30.22 in 10.0 mi ESE 3.5 mph - N/A   Scattered Clouds
6:55 AM 60.8 °F 57.2 °F 88% 30.23 in 10.0 mi Calm Calm - N/A   Scattered Clouds
6:56 AM 60.8 °F 57.2 °F 88% 30.23 in 10.0 mi Calm Calm - N/A   Scattered Clouds
7:15 AM 60.8 °F 57.2 °F 88% 30.24 in 10.0 mi Calm Calm - N/A Rain Light Rain
7:16 AM 60.8 °F 57.2 °F 88% 30.24 in 10.0 mi Calm Calm - N/A Rain Light Rain
7:35 AM 60.8 °F 57.2 °F 88% 30.24 in 10.0 mi Calm Calm - N/A Rain Light Rain
7:39 AM 60.8 °F 57.2 °F 88% 30.24 in 10.0 mi Calm Calm - N/A Rain Light Rain
7:58 AM 60.8 °F 57.2 °F 88% 30.25 in 10.0 mi Calm Calm - N/A Rain Light Rain
8:15 AM 60.8 °F 57.2 °F 88% 30.25 in 10.0 mi Calm Calm - N/A Rain Rain
8:35 AM 62.6 °F 59.0 °F 88% 30.24 in 10.0 mi South 3.5 mph - N/A   Light Drizzle
8:36 AM 62.6 °F 59.0 °F 88% 30.24 in 10.0 mi South 3.5 mph - N/A   Light Drizzle
8:55 AM 62.6 °F 59.0 °F 88% 30.24 in 10.0 mi SSE 5.8 mph - N/A   Clear
8:56 AM 62.6 °F 59.0 °F 88% 30.24 in 10.0 mi SSE 4.6 mph - N/A   Clear
9:18 AM 62.6 °F 59.0 °F 88% 30.24 in 10.0 mi SE 3.5 mph - N/A   Mostly Cloudy
9:37 AM 62.6 °F 59.0 °F 88% 30.24 in 10.0 mi Calm Calm - N/A   Overcast
9:56 AM 62.6 °F 59.0 °F 88% 30.24 in 10.0 mi SSE 3.5 mph - N/A   Overcast
10:15 AM 62.6 °F 59.0 °F 88% 30.24 in 10.0 mi SE 4.6 mph - N/A Rain Light Rain
10:16 AM 62.6 °F 59.0 °F 88% 30.24 in 10.0 mi SE 4.6 mph - N/A Rain Light Rain
10:35 AM 62.6 °F 59.0 °F 88% 30.24 in 10.0 mi South 3.5 mph - N/A   Scattered Clouds
10:39 AM 62.6 °F 57.2 °F 82% 30.24 in 10.0 mi SSE 4.6 mph - N/A   Scattered Clouds
10:57 AM 64.4 °F 57.2 °F 77% 30.25 in 10.0 mi South 4.6 mph - N/A   Mostly Cloudy
11:16 AM 64.4 °F 57.2 °F 77% 30.24 in 10.0 mi SSE 3.5 mph - N/A   Overcast
11:35 AM 64.4 °F 57.2 °F 77% 30.24 in 10.0 mi South 5.8 mph - N/A   Overcast
11:36 AM 64.4 °F 57.2 °F 77% 30.24 in 10.0 mi South 5.8 mph - N/A   Overcast
11:55 AM 64.4 °F 57.2 °F 77% 30.23 in 10.0 mi South 6.9 mph - N/A   Overcast
11:56 AM 64.4 °F 57.2 °F 77% 30.23 in 10.0 mi SSE 6.9 mph - N/A   Overcast
12:19 PM 66.2 °F 57.2 °F 73% 30.23 in 10.0 mi South 8.1 mph - N/A   Mostly Cloudy
12:36 PM 66.2 °F 57.2 °F 73% 30.23 in 10.0 mi SSE 9.2 mph - N/A   Overcast
12:56 PM 68.0 °F 57.2 °F 68% 30.23 in 10.0 mi SSE 8.1 mph - N/A   Mostly Cloudy
1:15 PM 68.0 °F 57.2 °F 68% 30.22 in 10.0 mi SSE 5.8 mph - N/A   Mostly Cloudy
1:35 PM 69.8 °F 57.2 °F 64% 30.22 in 10.0 mi SSE 8.1 mph - N/A   Overcast
1:39 PM 69.8 °F 57.2 °F 64% 30.22 in 10.0 mi SSE 4.6 mph - N/A   Overcast
1:58 PM 69.8 °F 55.4 °F 60% 30.21 in 10.0 mi SSE 6.9 mph - N/A   Overcast
2:15 PM 69.8 °F 57.2 °F 64% 30.21 in 10.0 mi South 10.4 mph - N/A   Overcast
2:35 PM 68.0 °F 53.6 °F 60% 30.21 in 10.0 mi SSE 6.9 mph - N/A   Overcast
2:36 PM 68.0 °F 55.4 °F 64% 30.21 in 10.0 mi SSE 5.8 mph 9.2 mph N/A   Overcast
2:55 PM 68.0 °F 55.4 °F 64% 30.20 in 10.0 mi South 6.9 mph - N/A   Overcast
3:18 PM 68.0 °F 57.2 °F 68% 30.19 in 10.0 mi ESE 6.9 mph - N/A   Overcast
3:37 PM 69.8 °F 57.2 °F 64% 30.19 in 10.0 mi ESE 5.8 mph - N/A   Overcast
3:56 PM 69.8 °F 57.2 °F 64% 30.18 in 10.0 mi ESE 10.4 mph - N/A   Overcast
4:15 PM 69.8 °F 57.2 °F 64% 30.18 in 10.0 mi ESE 8.1 mph - N/A   Overcast
4:16 PM 69.8 °F 57.2 °F 64% 30.18 in 10.0 mi ESE 8.1 mph - N/A   Overcast
4:35 PM 68.0 °F 57.2 °F 68% 30.17 in 10.0 mi SE 6.9 mph - N/A   Overcast
4:57 PM 69.8 °F 59.0 °F 68% 30.17 in 10.0 mi SE 9.2 mph - N/A   Overcast
5:15 PM 69.8 °F 59.0 °F 68% 30.16 in 10.0 mi SE 9.2 mph - N/A   Overcast
5:35 PM 69.8 °F 59.0 °F 68% 30.16 in 10.0 mi SE 10.4 mph - N/A   Overcast
5:36 PM 69.8 °F 59.0 °F 68% 30.16 in 10.0 mi SE 10.4 mph - N/A   Overcast
5:55 PM 69.8 °F 59.0 °F 68% 30.16 in 10.0 mi SE 10.4 mph - N/A   Overcast
5:56 PM 69.8 °F 59.0 °F 68% 30.16 in 10.0 mi SE 9.2 mph - N/A   Overcast
6:19 PM 69.8 °F 59.0 °F 68% 30.15 in 10.0 mi SE 9.2 mph - N/A   Overcast
6:36 PM 69.8 °F 59.0 °F 68% 30.15 in 10.0 mi SE 8.1 mph - N/A   Overcast
6:56 PM 68.0 °F 60.8 °F 78% 30.15 in 10.0 mi SE 6.9 mph - N/A   Overcast
7:15 PM 68.0 °F 60.8 °F 78% 30.15 in 10.0 mi SSE 4.6 mph - N/A   Overcast
7:16 PM 68.0 °F 59.0 °F 73% 30.15 in 10.0 mi SSE 4.6 mph - N/A   Overcast
7:35 PM 66.2 °F 59.0 °F 78% 30.15 in 10.0 mi SE 4.6 mph - N/A   Overcast
7:39 PM 66.2 °F 59.0 °F 78% 30.15 in 10.0 mi SE 3.5 mph - N/A   Overcast
7:58 PM 66.2 °F 59.0 °F 78% 30.15 in 10.0 mi SE 4.6 mph - N/A   Overcast
8:15 PM 66.2 °F 59.0 °F 78% 30.15 in 10.0 mi SE 4.6 mph - N/A   Overcast
8:35 PM 64.4 °F 59.0 °F 83% 30.15 in 10.0 mi SE 5.8 mph - N/A   Overcast
8:36 PM 64.4 °F 59.0 °F 83% 30.15 in 10.0 mi SE 5.8 mph - N/A   Overcast
8:55 PM 64.4 °F 57.2 °F 77% 30.14 in 10.0 mi SE 6.9 mph - N/A   Scattered Clouds
8:56 PM 64.4 °F 57.2 °F 77% 30.14 in 10.0 mi SE 6.9 mph - N/A   Scattered Clouds
9:18 PM 64.4 °F 57.2 °F 77% 30.15 in 10.0 mi SE 4.6 mph - N/A   Scattered Clouds
9:36 PM 64.4 °F 57.2 °F 77% 30.15 in 10.0 mi SSE 5.8 mph - N/A   Overcast
9:55 PM 64.4 °F 57.2 °F 77% 30.15 in 10.0 mi SSE 4.6 mph - N/A   Overcast
9:56 PM 64.4 °F 57.2 °F 77% 30.15 in 10.0 mi SSE 4.6 mph - N/A   Overcast
10:15 PM 64.4 °F 57.2 °F 77% 30.14 in 10.0 mi South 6.9 mph - N/A   Overcast
10:16 PM 64.4 °F 57.2 °F 77% 30.15 in 10.0 mi South 6.9 mph - N/A   Overcast
10:35 PM 64.4 °F 55.4 °F 73% 30.14 in 10.0 mi South 4.6 mph - N/A   Mostly Cloudy
10:40 PM 62.6 °F 55.4 °F 77% 30.15 in 10.0 mi South 3.5 mph - N/A   Mostly Cloudy
10:57 PM 62.6 °F 57.2 °F 82% 30.14 in 10.0 mi South 4.6 mph - N/A   Overcast
11:15 PM 62.6 °F 55.4 °F 77% 30.15 in 10.0 mi SSE 3.5 mph - N/A   Overcast
11:35 PM 62.6 °F 55.4 °F 77% 30.15 in 10.0 mi SSE 4.6 mph - N/A   Overcast
11:36 PM 62.6 °F 55.4 °F 77% 30.15 in 10.0 mi SSE 5.8 mph - N/A   Overcast
11:55 PM 62.6 °F 55.4 °F 77% 30.14 in 10.0 mi SSE 3.5 mph - N/A   Overcast
11:56 PM 62.6 °F 55.4 °F 77% 30.14 in 10.0 mi SSE 3.5 mph - N/A   Overcast